When you browse on this site, cookies collect data to enhance your experience and personalize the content and advertising you see.
Visit our Privacy Policy to learn more. By continuing to use the site, you agree to this use of cookies and data.
  • In Austria
  • List of Countries
  • For 7 days
  • Water Temperature
  • Satellite Maps
  • Weather Map
  • News
  • Weather Widgets
  • user-avatar
    Login

    Hourly Weather Chipata

    Today, 12 December, Wednesday

    Time Temperature Precipitation Wind Pressure Humidity
    00:00 +22°C° 0.1 mm 1 mps 678 mmHg 87%
    01:00 +22°C° 0.1 mm 1 mps 678 mmHg 88%
    02:00 +22°C° 0 mm 1 mps 678 mmHg 90%
    03:00 +21°C° 0.2 mm 1 mps 678 mmHg 91%
    04:00 +21°C° 0.2 mm 1 mps 677 mmHg 91%
    05:00 +21°C° 0.2 mm 1 mps 677 mmHg 92%
    06:00 +22°C° 0.6 mm 1 mps 678 mmHg 88%
    07:00 +23°C° 0.6 mm 1 mps 678 mmHg 84%
    08:00 +24°C° 0 mm 1 mps 679 mmHg 81%
    09:00 +25°C° 1.4 mm 1 mps 679 mmHg 79%
    10:00 +26°C° 1.4 mm 1 mps 679 mmHg 77%
    11:00 +26°C° 1.4 mm 1 mps 679 mmHg 74%
    12:00 +27°C° 1.6 mm 1 mps 678 mmHg 73%
    13:00 +27°C° 1.6 mm 1 mps 678 mmHg 72%
    14:00 +28°C° 1.6 mm 1 mps 678 mmHg 71%
    15:00 +27°C° 2 mm 1 mps 677 mmHg 76%
    16:00 +26°C° 2 mm 1 mps 677 mmHg 82%
    17:00 +25°C° 2 mm 1 mps 677 mmHg 87%
    18:00 +24°C° 1.1 mm 1 mps 677 mmHg 89%
    19:00 +23°C° 1.1 mm 1 mps 678 mmHg 91%
    20:00 +23°C° 1.1 mm 1 mps 678 mmHg 92%
    21:00 +23°C° 0.6 mm 1 mps 678 mmHg 93%
    22:00 +22°C° 0.6 mm 1 mps 679 mmHg 93%
    23:00 +22°C° 0.6 mm 1 mps 679 mmHg 93%

    Tomorrow, 13 December, Thursday

    Time Temperature Precipitation Wind Pressure Humidity
    00:00 +22°C° 0.6 mm 1 mps 679 mmHg 94%
    01:00 +22°C° 0.6 mm 1 mps 678 mmHg 94%
    02:00 +22°C° 0.6 mm 1 mps 678 mmHg 94%
    03:00 +22°C° 0.7 mm 1 mps 678 mmHg 95%
    04:00 +22°C° 0.7 mm 1 mps 678 mmHg 95%
    05:00 +19°C° 0.7 mm 0 mps 678 mmHg 95%
    06:00 +20°C° 0.5 mm 0 mps 679 mmHg 93%
    07:00 +21°C° 0.5 mm 0 mps 679 mmHg 91%
    08:00 +21°C° 0.5 mm 0 mps 680 mmHg 89%
    09:00 +23°C° 0.7 mm 0 mps 680 mmHg 83%
    10:00 +26°C° 0.7 mm 1 mps 680 mmHg 77%
    11:00 +27°C° 0.7 mm 1 mps 680 mmHg 71%
    12:00 +28°C° 0.8 mm 1 mps 680 mmHg 69%
    13:00 +28°C° 0.8 mm 1 mps 679 mmHg 66%
    14:00 +29°C° 0.8 mm 1 mps 679 mmHg 64%
    15:00 +28°C° 0.5 mm 1 mps 679 mmHg 68%
    16:00 +27°C° 0.5 mm 1 mps 678 mmHg 72%
    17:00 +26°C° 0.5 mm 1 mps 678 mmHg 76%
    18:00 +25°C° 0.3 mm 1 mps 678 mmHg 79%
    19:00 +24°C° 0.3 mm 1 mps 679 mmHg 82%
    20:00 +23°C° 0.3 mm 1 mps 679 mmHg 85%
    21:00 +23°C° 0.1 mm 1 mps 679 mmHg 85%
    22:00 +23°C° 0.1 mm 1 mps 679 mmHg 86%
    23:00 +23°C° 0.1 mm 1 mps 680 mmHg 86%

    Day after tomorrow, 14 December, Friday

    Time Temperature Precipitation Wind Pressure Humidity
    00:00 +23°C° 0.2 mm 1 mps 679 mmHg 86%
    01:00 +22°C° 0.2 mm 1 mps 679 mmHg 86%
    02:00 +20°C° 0.2 mm 0 mps 678 mmHg 87%
    03:00 +20°C° 0.5 mm 0 mps 678 mmHg 87%
    04:00 +20°C° 0.5 mm 0 mps 679 mmHg 87%
    05:00 +20°C° 0.5 mm 0 mps 679 mmHg 87%
    06:00 +21°C° 0.5 mm 0 mps 679 mmHg 85%
    07:00 +21°C° 0.5 mm 0 mps 680 mmHg 83%
    08:00 +24°C° 0.5 mm 1 mps 680 mmHg 82%
    09:00 +25°C° 0.9 mm 1 mps 680 mmHg 78%
    10:00 +27°C° 0.9 mm 1 mps 681 mmHg 74%
    11:00 +28°C° 0.9 mm 1 mps 681 mmHg 69%
    12:00 +28°C° 1.4 mm 1 mps 680 mmHg 68%
    13:00 +29°C° 1.4 mm 1 mps 679 mmHg 67%
    14:00 +29°C° 1.4 mm 1 mps 678 mmHg 65%
    15:00 +28°C° 1.9 mm 1 mps 678 mmHg 70%
    16:00 +27°C° 1.9 mm 1 mps 678 mmHg 75%
    17:00 +26°C° 1.9 mm 1 mps 677 mmHg 80%
    18:00 +25°C° 1.3 mm 1 mps 678 mmHg 83%
    19:00 +24°C° 1.3 mm 1 mps 678 mmHg 87%
    20:00 +23°C° 1.3 mm 2 mps 679 mmHg 90%
    21:00 +23°C° 0.1 mm 2 mps 679 mmHg 90%
    22:00 +21°C° 0.1 mm 2 mps 679 mmHg 91%
    23:00 +21°C° 0.1 mm 2 mps 679 mmHg 92%

    15 December, Saturday

    Time Temperature Precipitation Wind Pressure Humidity
    00:00 +21°C° 0.1 mm 2 mps 679 mmHg 92%
    01:00 +21°C° 0.1 mm 2 mps 678 mmHg 93%
    02:00 +21°C° 0.1 mm 1 mps 678 mmHg 94%
    03:00 +21°C° 0.2 mm 1 mps 678 mmHg 93%
    04:00 +21°C° 0.2 mm 1 mps 678 mmHg 93%
    05:00 +21°C° 0.2 mm 1 mps 678 mmHg 93%
    06:00 +22°C° 0.4 mm 1 mps 679 mmHg 90%
    07:00 +23°C° 0.4 mm 2 mps 680 mmHg 87%
    08:00 +24°C° 0.4 mm 2 mps 680 mmHg 84%
    09:00 +25°C° 0.8 mm 2 mps 680 mmHg 80%
    10:00 +26°C° 0.8 mm 2 mps 680 mmHg 77%
    11:00 +26°C° 0.8 mm 2 mps 680 mmHg 73%
    12:00 +27°C° 1.2 mm 2 mps 679 mmHg 72%
    13:00 +27°C° 1.2 mm 1 mps 678 mmHg 70%
    14:00 +28°C° 1.2 mm 1 mps 678 mmHg 69%
    15:00 +27°C° 0.6 mm 1 mps 678 mmHg 71%
    16:00 +27°C° 0.6 mm 1 mps 677 mmHg 73%
    17:00 +27°C° 0.6 mm 1 mps 677 mmHg 75%
    18:00 +26°C° 1.1 mm 1 mps 678 mmHg 79%
    19:00 +24°C° 1.1 mm 1 mps 678 mmHg 83%
    20:00 +23°C° 1.1 mm 1 mps 679 mmHg 86%
    21:00 +23°C° 1.5 mm 1 mps 679 mmHg 87%
    22:00 +23°C° 1.5 mm 1 mps 679 mmHg 89%
    23:00 +22°C° 1.5 mm 1 mps 679 mmHg 90%

    16 December, Sunday

    Time Temperature Precipitation Wind Pressure Humidity
    00:00 +22°C° 0.7 mm 1 mps 678 mmHg 90%
    01:00 +22°C° 0.7 mm 1 mps 678 mmHg 91%
    02:00 +22°C° 0.7 mm 1 mps 678 mmHg 91%
    03:00 +22°C° 0.1 mm 1 mps 678 mmHg 91%
    04:00 +22°C° 0.1 mm 1 mps 678 mmHg 92%
    05:00 +21°C° 0.1 mm 1 mps 678 mmHg 92%
    06:00 +23°C° 0.1 mm 1 mps 679 mmHg 87%
    07:00 +24°C° 0.1 mm 1 mps 679 mmHg 82%
    08:00 +25°C° 0.1 mm 1 mps 680 mmHg 78%
    09:00 +27°C° 0.8 mm 1 mps 680 mmHg 73%
    10:00 +28°C° 0.8 mm 1 mps 680 mmHg 68%
    11:00 +29°C° 0.8 mm 1 mps 680 mmHg 63%
    12:00 +30°C° 1 mm 1 mps 679 mmHg 61%
    13:00 +31°C° 1 mm 1 mps 678 mmHg 60%
    14:00 +29°C° 1 mm 0 mps 678 mmHg 59%
    15:00 +30°C° 1.3 mm 1 mps 677 mmHg 65%
    16:00 +29°C° 1.3 mm 1 mps 677 mmHg 71%
    17:00 +27°C° 1.3 mm 1 mps 677 mmHg 77%
    18:00 +26°C° 2.8 mm 1 mps 677 mmHg 80%
    19:00 +25°C° 2.8 mm 1 mps 678 mmHg 84%
    20:00 +24°C° 2.8 mm 2 mps 678 mmHg 87%
    21:00 +24°C° 1.9 mm 1 mps 678 mmHg 88%
    22:00 +23°C° 1.9 mm 1 mps 678 mmHg 89%
    23:00 +21°C° 1.9 mm 0 mps 678 mmHg 89%

    17 December, Monday

    Time Temperature Precipitation Wind Pressure Humidity
    00:00 +21°C° 0.9 mm 0 mps 678 mmHg 89%
    01:00 +21°C° 0.9 mm 0 mps 677 mmHg 89%
    02:00 +20°C° 0.9 mm 0 mps 677 mmHg 90%
    03:00 +20°C° 0.2 mm 0 mps 677 mmHg 90%
    04:00 +20°C° 0.2 mm 0 mps 677 mmHg 90%
    05:00 +20°C° 0.2 mm 0 mps 678 mmHg 90%
    06:00 +21°C° 0.3 mm 0 mps 678 mmHg 86%
    07:00 +22°C° 0.3 mm 0 mps 679 mmHg 83%
    08:00 +26°C° 0.3 mm 1 mps 679 mmHg 79%
    09:00 +27°C° 0.9 mm 1 mps 679 mmHg 75%
    10:00 +28°C° 0.9 mm 1 mps 679 mmHg 71%
    11:00 +30°C° 0.9 mm 1 mps 679 mmHg 66%
    12:00 +29°C° 1.6 mm 1 mps 679 mmHg 68%
    13:00 +29°C° 1.6 mm 1 mps 678 mmHg 69%
    14:00 +29°C° 1.6 mm 1 mps 677 mmHg 71%
    15:00 +28°C° 2.1 mm 1 mps 677 mmHg 76%
    16:00 +26°C° 2.1 mm 1 mps 677 mmHg 82%
    17:00 +25°C° 2.1 mm 1 mps 677 mmHg 87%
    18:00 +25°C° 1.4 mm 1 mps 677 mmHg 88%
    19:00 +24°C° 1.4 mm 1 mps 677 mmHg 89%
    20:00 +23°C° 1.4 mm 1 mps 678 mmHg 90%
    21:00 +23°C° 0.4 mm 1 mps 678 mmHg 90%
    22:00 +23°C° 0.4 mm 1 mps 678 mmHg 89%
    23:00 +21°C° 0.4 mm 0 mps 678 mmHg 89%
    Show more